Location: Unspecified
(35.7250°N, 0.0000°E)
Time: 19:18:36
(UTC+00:00)

Courier 1B Rocket - Pass Details

Date: 27 June 2019
Orbit: 920 x 1202 km, 28.2° (Epoch: 15 July)

Event Time Altitude Azimuth Distance (km) Brightness Sun altitude
Exits shadow 02:32:22 35° 197° (SSW) 1,718 5.8 -21.2°
Maximum altitude 02:34:02 39° 169° (SSE) 1,579 5.8 -21.0°
Drops below altitude 10° 02:40:26 10° 102° (ESE) 2,842 7.7 -20.2°
Sets 02:43:13 0° 95° (E) 3,752 8.5 -19.8°
